Time,TemperatureF,DewpointF,PressureIn,WindDirection,WindDirectionDegrees,WindSpeedMPH,WindSpeedGustMPH,Humidity,HourlyPrecipIn,Conditions,Clouds,dailyrainin,SoftwareType,DateUTC
2013-01-27 00:00:00,12.5,2.0,30.22,West,281,0.0,4.0,62,0.00,,CLR,0.00,VWS V14.01,2013-01-27 05:00:00,
2013-01-27 00:02:00,12.5,2.0,30.22,WNW,289,0.0,4.0,62,0.00,,,0.00,WUHU216VWC,2013-01-27 05:02:00,
2013-01-27 00:07:00,12.4,1.9,30.21,WNW,289,1.0,2.0,62,0.00,,CLR,0.00,VWS V14.01,2013-01-27 05:07:00,
2013-01-27 00:12:00,12.5,2.0,30.21,WNW,284,0.0,7.0,62,0.00,,CLR,0.00,VWS V14.01,2013-01-27 05:12:00,
2013-01-27 00:17:00,12.5,2.3,30.22,WNW,284,0.0,7.0,63,0.00,,,0.00,WUHU216VWC,2013-01-27 05:17:00,
2013-01-27 00:22:00,12.2,2.0,30.22,WNW,284,0.0,0.0,63,0.00,,CLR,0.00,VWS V14.01,2013-01-27 05:22:00,
2013-01-27 00:27:00,12.0,1.8,30.22,WNW,284,0.0,1.0,63,0.00,,CLR,0.00,VWS V14.01,2013-01-27 05:27:00,
2013-01-27 00:32:00,11.8,2.0,30.22,WNW,284,0.0,1.0,64,0.00,,CLR,0.00,VWS V14.01,2013-01-27 05:32:00,
2013-01-27 00:37:00,11.7,1.9,30.22,West,267,0.0,5.0,64,0.00,,CLR,0.00,VWS V14.01,2013-01-27 05:37:00,
2013-01-27 00:42:00,11.7,1.9,30.22,West,267,1.0,5.0,64,0.00,,,0.00,WUHU216VWC,2013-01-27 05:42:00,
2013-01-27 00:47:00,11.6,2.1,30.22,West,263,0.0,5.0,65,0.00,,,0.00,WUHU216VWC,2013-01-27 05:47:00,
2013-01-27 00:52:00,11.4,1.9,30.22,West,265,1.0,5.0,65,0.00,,CLR,0.00,VWS V14.01,2013-01-27 05:52:00,
2013-01-27 00:57:00,11.4,1.9,30.22,West,261,1.0,5.0,65,0.00,,CLR,0.00,VWS V14.01,2013-01-27 05:57:00,
2013-01-27 01:02:00,11.4,2.3,30.22,North,355,0.0,3.0,66,0.00,,CLR,0.00,VWS V14.01,2013-01-27 06:02:00,
2013-01-27 01:07:00,11.6,2.1,30.23,SW,236,0.0,3.0,65,0.00,,CLR,0.00,VWS V14.01,2013-01-27 06:07:00,
2013-01-27 01:12:00,11.8,2.6,30.23,WSW,250,0.0,3.0,66,0.00,,,0.00,WUHU216VWC,2013-01-27 06:12:00,
2013-01-27 01:17:00,11.9,2.7,30.23,WSW,245,3.0,3.0,66,0.00,,CLR,0.00,VWS V14.01,2013-01-27 06:17:00,
2013-01-27 01:22:00,12.0,2.8,30.23,WSW,244,1.0,3.0,66,0.00,,CLR,0.00,VWS V14.01,2013-01-27 06:22:00,
2013-01-27 01:27:00,11.9,2.7,30.24,WSW,253,1.0,3.0,66,0.00,,CLR,0.00,VWS V14.01,2013-01-27 06:27:00,
2013-01-27 01:32:00,11.7,2.6,30.24,West,274,1.0,4.0,66,0.00,,,0.00,WUHU216VWC,2013-01-27 06:32:00,
2013-01-27 01:37:00,11.6,2.8,30.24,West,265,1.0,4.0,67,0.00,,,0.00,WUHU216VWC,2013-01-27 06:37:00,
2013-01-27 01:42:00,11.4,2.6,30.24,West,265,0.0,4.0,67,0.00,,,0.00,WUHU216VWC,2013-01-27 06:42:00,
2013-01-27 01:47:00,11.4,2.6,30.24,West,265,0.0,4.0,67,0.00,,,0.00,WUHU216VWC,2013-01-27 06:47:00,
2013-01-27 01:52:00,11.1,2.3,30.24,West,265,0.0,3.0,67,0.00,,,0.00,WUHU216VWC,2013-01-27 06:52:00,
2013-01-27 01:57:00,10.8,2.3,30.25,West,265,0.0,1.0,68,0.00,,CLR,0.00,VWS V14.01,2013-01-27 06:57:00,
2013-01-27 02:02:00,10.6,2.5,30.25,West,265,0.0,0.0,69,0.00,,CLR,0.00,VWS V14.01,2013-01-27 07:02:00,
2013-01-27 02:07:00,10.6,2.5,30.25,West,265,0.0,0.0,69,0.00,,CLR,0.00,VWS V14.01,2013-01-27 07:07:00,
2013-01-27 02:13:00,10.5,2.4,30.25,West,265,0.0,1.0,69,0.00,,,0.00,WUHU216VWC,2013-01-27 07:13:00,
2013-01-27 02:18:00,10.3,2.5,30.25,West,265,0.0,1.0,70,0.00,,,0.00,WUHU216VWC,2013-01-27 07:18:00,
2013-01-27 02:23:00,10.1,2.6,30.25,West,265,0.0,1.0,71,0.00,,,0.00,WUHU216VWC,2013-01-27 07:23:00,
2013-01-27 02:28:00,9.9,2.4,30.25,West,265,0.0,0.0,71,0.00,,CLR,0.00,VWS V14.01,2013-01-27 07:28:00,
2013-01-27 02:33:00,9.7,2.5,30.26,West,265,0.0,1.0,72,0.00,,CLR,0.00,VWS V14.01,2013-01-27 07:33:00,
2013-01-27 02:38:00,9.6,2.4,30.26,West,265,0.0,4.0,72,0.00,,CLR,0.00,VWS V14.01,2013-01-27 07:38:00,
2013-01-27 02:43:00,9.7,2.8,30.26,West,265,0.0,4.0,73,0.00,,CLR,0.00,VWS V14.01,2013-01-27 07:43:00,
2013-01-27 02:48:00,9.8,2.6,30.26,West,265,0.0,1.0,72,0.00,,CLR,0.00,VWS V14.01,2013-01-27 07:48:00,
2013-01-27 02:53:00,9.9,2.7,30.26,West,265,0.0,1.0,72,0.00,,CLR,0.00,VWS V14.01,2013-01-27 07:53:00,
2013-01-27 02:58:00,9.9,3.0,30.26,West,265,0.0,1.0,73,0.00,,CLR,0.00,VWS V14.01,2013-01-27 07:58:00,
2013-01-27 03:03:00,9.8,2.9,30.26,West,265,0.0,1.0,73,0.00,,CLR,0.00,VWS V14.01,2013-01-27 08:03:00,
2013-01-27 03:08:00,9.7,2.8,30.26,West,265,0.0,1.0,73,0.00,,,0.00,WUHU216VWC,2013-01-27 08:08:00,
2013-01-27 03:13:00,9.5,2.9,30.26,West,265,0.0,1.0,74,0.00,,CLR,0.00,VWS V14.01,2013-01-27 08:13:00,
2013-01-27 03:18:00,9.5,2.9,30.26,West,265,0.0,2.0,74,0.00,,CLR,0.00,VWS V14.01,2013-01-27 08:18:00,
2013-01-27 03:23:00,9.6,3.3,30.26,West,265,0.0,2.0,75,0.00,,CLR,0.00,VWS V14.01,2013-01-27 08:23:00,
2013-01-27 03:28:00,9.5,3.2,30.26,West,265,0.0,2.0,75,0.00,,CLR,0.00,VWS V14.01,2013-01-27 08:28:00,
2013-01-27 03:33:00,9.4,2.8,30.26,West,265,0.0,2.0,74,0.00,,,0.00,WUHU216VWC,2013-01-27 08:33:00,
2013-01-27 03:38:00,9.4,3.1,30.26,West,265,0.0,1.0,75,0.00,,CLR,0.00,VWS V14.01,2013-01-27 08:38:00,
2013-01-27 03:43:00,9.6,3.3,30.26,West,265,0.0,2.0,75,0.00,,,0.00,WUHU216VWC,2013-01-27 08:43:00,
2013-01-27 03:48:00,9.6,3.3,30.26,West,265,0.0,2.0,75,0.00,,CLR,0.00,VWS V14.01,2013-01-27 08:48:00,
2013-01-27 03:53:00,9.9,3.6,30.26,West,259,1.0,3.0,75,0.00,,CLR,0.00,VWS V14.01,2013-01-27 08:53:00,
2013-01-27 03:58:00,10.4,3.8,30.27,West,274,1.0,3.0,74,0.00,,,0.00,WUHU216VWC,2013-01-27 08:58:00,
2013-01-27 04:03:00,10.8,4.2,30.27,West,274,1.0,2.0,74,0.00,,CLR,0.00,VWS V14.01,2013-01-27 09:03:00,
2013-01-27 04:08:00,10.9,4.0,30.27,West,264,0.0,4.0,73,0.00,,,0.00,WUHU216VWC,2013-01-27 09:08:00,
2013-01-27 04:12:00,10.8,3.9,30.27,West,264,1.0,2.0,73,0.00,,CLR,0.00,VWS V14.01,2013-01-27 09:12:00,
2013-01-27 04:17:00,10.7,4.1,30.27,West,264,0.0,4.0,74,0.00,,,0.00,WUHU216VWC,2013-01-27 09:17:00,
2013-01-27 04:22:00,10.7,4.1,30.27,West,264,0.0,2.0,74,0.00,,CLR,0.00,VWS V14.01,2013-01-27 09:22:00,
2013-01-27 04:27:00,10.5,3.9,30.27,West,264,0.0,1.0,74,0.00,,CLR,0.00,VWS V14.01,2013-01-27 09:27:00,
2013-01-27 04:32:00,10.3,3.7,30.28,West,264,0.0,1.0,74,0.00,,CLR,0.00,VWS V14.01,2013-01-27 09:32:00,
2013-01-27 04:37:00,10.1,3.5,30.28,West,264,0.0,1.0,74,0.00,,CLR,0.00,VWS V14.01,2013-01-27 09:37:00,
2013-01-27 04:42:00,10.0,3.7,30.28,West,264,1.0,3.0,75,0.00,,CLR,0.00,VWS V14.01,2013-01-27 09:42:00,
2013-01-27 04:47:00,10.1,3.8,30.28,West,280,1.0,4.0,75,0.00,,,0.00,WUHU216VWC,2013-01-27 09:47:00,
2013-01-27 04:52:00,10.3,3.7,30.28,West,263,2.0,4.0,74,0.00,,CLR,0.00,VWS V14.01,2013-01-27 09:52:00,
2013-01-27 04:57:00,10.4,3.8,30.28,West,263,0.0,4.0,74,0.00,,,0.00,WUHU216VWC,2013-01-27 09:57:00,
2013-01-27 05:02:00,10.5,3.9,30.29,West,263,0.0,4.0,74,0.00,,,0.00,WUHU216VWC,2013-01-27 10:02:00,
2013-01-27 05:07:00,10.4,3.8,30.29,West,263,0.0,1.0,74,0.00,,CLR,0.00,VWS V14.01,2013-01-27 10:07:00,
2013-01-27 05:12:00,10.3,3.7,30.29,NW,310,0.0,3.0,74,0.00,,,0.00,WUHU216VWC,2013-01-27 10:12:00,
2013-01-27 05:17:00,10.5,3.9,30.29,WNW,294,0.0,3.0,74,0.00,,CLR,0.00,VWS V14.01,2013-01-27 10:17:00,
2013-01-27 05:22:00,10.7,3.8,30.29,West,273,0.0,3.0,73,0.00,,CLR,0.00,VWS V14.01,2013-01-27 10:22:00,
2013-01-27 05:27:00,10.7,3.8,30.29,NNW,331,0.0,3.0,73,0.00,,,0.00,WUHU216VWC,2013-01-27 10:27:00,
2013-01-27 05:32:00,10.7,3.8,30.29,NW,317,0.0,3.0,73,0.00,,CLR,0.00,VWS V14.01,2013-01-27 10:32:00,
2013-01-27 05:37:00,10.8,3.6,30.30,WNW,292,0.0,2.0,72,0.00,,CLR,0.00,VWS V14.01,2013-01-27 10:37:00,
2013-01-27 05:42:00,10.7,3.8,30.30,WSW,258,0.0,3.0,73,0.00,,,0.00,WUHU216VWC,2013-01-27 10:42:00,
2013-01-27 05:47:00,10.6,3.4,30.30,WSW,258,0.0,1.0,72,0.00,,CLR,0.00,VWS V14.01,2013-01-27 10:47:00,
2013-01-27 05:52:00,10.3,3.4,30.30,WSW,258,0.0,1.0,73,0.00,,CLR,0.00,VWS V14.01,2013-01-27 10:52:00,
2013-01-27 05:57:00,10.2,3.3,30.30,WSW,258,0.0,1.0,73,0.00,,,0.00,WUHU216VWC,2013-01-27 10:57:00,
2013-01-27 06:02:00,10.0,3.1,30.31,WSW,258,0.0,0.0,73,0.00,,CLR,0.00,VWS V14.01,2013-01-27 11:02:00,
2013-01-27 06:07:00,9.8,2.9,30.31,North,9,0.0,1.0,73,0.00,,,0.00,WUHU216VWC,2013-01-27 11:07:00,
2013-01-27 06:12:00,9.8,3.2,30.31,North,9,0.0,1.0,74,0.00,,CLR,0.00,VWS V14.01,2013-01-27 11:12:00,
2013-01-27 06:17:00,9.7,3.1,30.31,North,5,0.0,1.0,74,0.00,,CLR,0.00,VWS V14.01,2013-01-27 11:17:00,
2013-01-27 06:22:00,9.5,2.9,30.31,NNE,28,0.0,1.0,74,0.00,,CLR,0.00,VWS V14.01,2013-01-27 11:22:00,
2013-01-27 06:27:00,9.3,2.7,30.31,NNE,28,0.0,1.0,74,0.00,,,0.00,WUHU216VWC,2013-01-27 11:27:00,
2013-01-27 06:32:00,9.2,2.9,30.32,NNE,28,0.0,1.0,75,0.00,,,0.00,WUHU216VWC,2013-01-27 11:32:00,
2013-01-27 06:37:00,9.1,2.8,30.32,NNE,28,0.0,1.0,75,0.00,,,0.00,WUHU216VWC,2013-01-27 11:37:00,
2013-01-27 06:42:00,9.0,3.0,30.32,NNE,28,0.0,1.0,76,0.00,,CLR,0.00,VWS V14.01,2013-01-27 11:42:00,
2013-01-27 06:47:00,8.7,2.7,30.32,NNW,348,0.0,1.0,76,0.00,,CLR,0.00,VWS V14.01,2013-01-27 11:47:00,
2013-01-27 06:52:00,8.5,2.5,30.33,NNW,348,0.0,1.0,76,0.00,,,0.00,WUHU216VWC,2013-01-27 11:52:00,
2013-01-27 06:57:00,8.2,2.2,30.33,NNW,348,0.0,0.0,76,0.00,,CLR,0.00,VWS V14.01,2013-01-27 11:57:00,
2013-01-27 07:02:00,8.0,2.3,30.33,NNW,348,0.0,1.0,77,0.00,,,0.00,WUHU216VWC,2013-01-27 12:02:00,
2013-01-27 07:07:00,7.7,2.3,30.33,NNW,348,0.0,0.0,78,0.00,,CLR,0.00,VWS V14.01,2013-01-27 12:07:00,
2013-01-27 07:12:00,7.3,1.9,30.33,NNW,348,0.0,0.0,78,0.00,,,0.00,WUHU216VWC,2013-01-27 12:12:00,
2013-01-27 07:17:00,7.1,1.7,30.34,NNW,348,0.0,0.0,78,0.00,,CLR,0.00,VWS V14.01,2013-01-27 12:17:00,
2013-01-27 07:22:00,7.0,1.9,30.34,NNW,348,0.0,0.0,79,0.00,,CLR,0.00,VWS V14.01,2013-01-27 12:22:00,
2013-01-27 07:27:00,6.7,1.6,30.34,NNW,348,0.0,0.0,79,0.00,,CLR,0.00,VWS V14.01,2013-01-27 12:27:00,
2013-01-27 07:32:00,6.4,1.6,30.34,NNW,348,0.0,0.0,80,0.00,,CLR,0.00,VWS V14.01,2013-01-27 12:32:00,
2013-01-27 07:37:00,6.3,1.7,30.34,NNW,348,0.0,0.0,81,0.00,,CLR,0.00,VWS V14.01,2013-01-27 12:37:00,
2013-01-27 07:42:00,6.4,1.8,30.35,NNW,348,0.0,0.0,81,0.00,,,0.00,WUHU216VWC,2013-01-27 12:42:00,
2013-01-27 07:47:00,6.6,2.0,30.35,NNW,348,0.0,0.0,81,0.00,,,0.00,WUHU216VWC,2013-01-27 12:47:00,
2013-01-27 07:52:00,6.9,2.3,30.36,NNW,348,0.0,0.0,81,0.00,,CLR,0.00,VWS V14.01,2013-01-27 12:52:00,
2013-01-27 07:57:00,7.1,2.5,30.36,NNW,348,0.0,0.0,81,0.00,,CLR,0.00,VWS V14.01,2013-01-27 12:57:00,
2013-01-27 08:02:00,7.3,2.7,30.36,NNW,348,0.0,0.0,81,0.00,,CLR,0.00,VWS V14.01,2013-01-27 13:02:00,
2013-01-27 08:07:00,7.6,3.0,30.36,NNW,348,0.0,0.0,81,0.00,,,0.00,WUHU216VWC,2013-01-27 13:07:00,
2013-01-27 08:12:00,8.0,3.1,30.36,NNW,348,0.0,0.0,80,0.00,,CLR,0.00,VWS V14.01,2013-01-27 13:12:00,
2013-01-27 08:17:00,8.5,3.6,30.36,NNW,348,0.0,0.0,80,0.00,,CLR,0.00,VWS V14.01,2013-01-27 13:17:00,
2013-01-27 08:22:00,9.2,4.0,30.37,NNW,348,0.0,0.0,79,0.00,,,0.00,WUHU216VWC,2013-01-27 13:22:00,
2013-01-27 08:27:00,10.0,4.5,30.37,NNW,348,0.0,0.0,78,0.00,,,0.00,WUHU216VWC,2013-01-27 13:27:00,
2013-01-27 08:32:00,10.7,4.6,30.37,NNW,348,0.0,0.0,76,0.00,,,0.00,WUHU216VWC,2013-01-27 13:32:00,
2013-01-27 08:37:00,11.4,4.4,30.37,WNW,290,2.0,2.0,73,0.00,,,0.00,WUHU216VWC,2013-01-27 13:37:00,
2013-01-27 08:42:00,12.3,4.7,30.37,WSW,250,0.0,4.0,71,0.00,,,0.00,WUHU216VWC,2013-01-27 13:42:00,
2013-01-27 08:47:00,13.4,4.2,30.37,WSW,240,0.0,4.0,66,0.00,,CLR,0.00,VWS V14.01,2013-01-27 13:47:00,
2013-01-27 08:52:00,14.1,4.2,30.38,West,269,3.0,4.0,64,0.00,,,0.00,WUHU216VWC,2013-01-27 13:52:00,
2013-01-27 08:57:00,14.8,4.5,30.38,West,269,0.0,4.0,63,0.00,,,0.00,WUHU216VWC,2013-01-27 13:57:00,
2013-01-27 09:02:00,15.1,4.1,30.38,West,269,0.0,4.0,61,0.00,,,0.00,WUHU216VWC,2013-01-27 14:02:00,
2013-01-27 09:07:00,15.5,4.5,30.38,West,271,0.0,3.0,61,0.00,,CLR,0.00,VWS V14.01,2013-01-27 14:07:00,
2013-01-27 09:12:00,15.9,4.1,30.39,West,271,0.0,3.0,59,0.00,,CLR,0.00,VWS V14.01,2013-01-27 14:12:00,
2013-01-27 09:17:00,16.1,4.3,30.39,WSW,249,1.0,5.0,59,0.00,,,0.00,WUHU216VWC,2013-01-27 14:17:00,
2013-01-27 09:22:00,16.5,3.5,30.39,WSW,247,0.0,5.0,56,0.00,,CLR,0.00,VWS V14.01,2013-01-27 14:22:00,
2013-01-27 09:27:00,16.8,3.8,30.39,North,355,6.0,9.0,56,0.00,,CLR,0.00,VWS V14.01,2013-01-27 14:27:00,
2013-01-27 09:32:00,17.3,3.1,30.39,NNE,26,2.0,9.0,53,0.00,,,0.00,WUHU216VWC,2013-01-27 14:32:00,
2013-01-27 09:37:00,17.9,2.4,30.39,North,349,1.0,7.0,50,0.00,,CLR,0.00,VWS V14.01,2013-01-27 14:37:00,
2013-01-27 09:42:00,18.5,2.1,30.39,North,5,3.0,5.0,48,0.00,,CLR,0.00,VWS V14.01,2013-01-27 14:42:00,
2013-01-27 09:47:00,18.8,1.9,30.39,North,355,4.0,7.0,47,0.00,,,0.00,WUHU216VWC,2013-01-27 14:47:00,
2013-01-27 09:52:00,18.9,1.5,30.40,NNW,338,3.0,7.0,46,0.00,,,0.00,WUHU216VWC,2013-01-27 14:52:00,
2013-01-27 09:57:00,19.0,1.6,30.40,North,360,0.0,6.0,46,0.00,,CLR,0.00,VWS V14.01,2013-01-27 14:57:00,
2013-01-27 10:02:00,19.2,1.4,30.40,North,355,2.0,7.0,45,0.00,,,0.00,WUHU216VWC,2013-01-27 15:02:00,
2013-01-27 10:07:00,19.3,1.5,30.40,North,355,6.0,6.0,45,0.00,,CLR,0.00,VWS V14.01,2013-01-27 15:07:00,
2013-01-27 10:12:00,19.4,1.1,30.40,North,355,2.0,10.0,44,0.00,,,0.00,WUHU216VWC,2013-01-27 15:12:00,
2013-01-27 10:17:00,19.5,1.6,30.40,North,355,1.0,10.0,45,0.00,,CLR,0.00,VWS V14.01,2013-01-27 15:17:00,
2013-01-27 10:22:00,19.7,1.3,30.40,North,355,6.0,14.0,44,0.00,,,0.00,WUHU216VWC,2013-01-27 15:22:00,
2013-01-27 10:27:00,19.9,2.0,30.40,North,360,7.0,14.0,45,0.00,,,0.00,WUHU216VWC,2013-01-27 15:27:00,
2013-01-27 10:32:00,20.2,1.8,30.40,NNW,341,5.0,9.0,44,0.00,,CLR,0.00,VWS V14.01,2013-01-27 15:32:00,
2013-01-27 10:37:00,20.3,1.4,30.40,North,351,6.0,10.0,43,0.00,,,0.00,WUHU216VWC,2013-01-27 15:37:00,
2013-01-27 10:42:00,20.5,1.1,30.40,North,355,2.0,10.0,42,0.00,,CLR,0.00,VWS V14.01,2013-01-27 15:42:00,
2013-01-27 10:47:00,20.8,1.3,30.40,NW,320,3.0,10.0,42,0.00,,CLR,0.00,VWS V14.01,2013-01-27 15:47:00,
2013-01-27 10:52:00,21.2,1.7,30.40,NNW,342,3.0,8.0,42,0.00,,CLR,0.00,VWS V14.01,2013-01-27 15:52:00,
2013-01-27 10:57:00,21.5,1.5,30.40,North,360,2.0,8.0,41,0.00,,CLR,0.00,VWS V14.01,2013-01-27 15:57:00,
2013-01-27 11:02:00,21.8,2.2,30.40,North,355,6.0,7.0,42,0.00,,CLR,0.00,VWS V14.01,2013-01-27 16:02:00,
2013-01-27 11:07:00,21.8,1.2,30.40,WNW,292,2.0,8.0,40,0.00,,,0.00,WUHU216VWC,2013-01-27 16:07:00,
2013-01-27 11:12:00,21.9,1.8,30.40,WSW,243,0.0,8.0,41,0.00,,,0.00,WUHU216VWC,2013-01-27 16:12:00,
2013-01-27 11:17:00,22.2,2.6,30.40,North,360,4.0,7.0,42,0.00,,CLR,0.00,VWS V14.01,2013-01-27 16:17:00,
2013-01-27 11:22:00,22.4,2.3,30.39,North,5,4.0,7.0,41,0.00,,CLR,0.00,VWS V14.01,2013-01-27 16:22:00,
2013-01-27 11:27:00,22.7,2.5,30.40,NNW,346,3.0,8.0,41,0.00,,CLR,0.00,VWS V14.01,2013-01-27 16:27:00,
2013-01-27 11:32:00,22.9,2.7,30.40,WSW,252,3.0,8.0,41,0.00,,CLR,0.00,VWS V14.01,2013-01-27 16:32:00,
2013-01-27 11:37:00,23.2,1.9,30.40,WSW,240,0.0,8.0,39,0.00,,,0.00,WUHU216VWC,2013-01-27 16:37:00,
2013-01-27 11:42:00,23.4,2.1,30.39,North,355,3.0,8.0,39,0.00,,,0.00,WUHU216VWC,2013-01-27 16:42:00,
2013-01-27 11:47:00,23.7,2.9,30.39,West,265,8.0,8.0,40,0.00,,CLR,0.00,VWS V14.01,2013-01-27 16:47:00,
2013-01-27 11:52:00,24.0,2.1,30.39,North,355,3.0,8.0,38,0.00,,,0.00,WUHU216VWC,2013-01-27 16:52:00,
2013-01-27 11:57:00,24.1,2.7,30.39,SSW,200,2.0,11.0,39,0.00,,CLR,0.00,VWS V14.01,2013-01-27 16:57:00,
2013-01-27 12:02:00,24.3,2.4,30.38,WSW,257,2.0,8.0,38,0.00,,CLR,0.00,VWS V14.01,2013-01-27 17:02:00,
2013-01-27 12:07:00,24.4,3.0,30.38,North,360,4.0,8.0,39,0.00,,CLR,0.00,VWS V14.01,2013-01-27 17:07:00,
2013-01-27 12:12:00,24.4,3.0,30.38,North,355,0.0,8.0,39,0.00,,CLR,0.00,VWS V14.01,2013-01-27 17:12:00,
2013-01-27 12:17:00,24.6,3.2,30.38,North,5,6.0,8.0,39,0.00,,CLR,0.00,VWS V14.01,2013-01-27 17:17:00,
2013-01-27 12:22:00,24.9,3.5,30.38,NNW,332,8.0,8.0,39,0.00,,CLR,0.00,VWS V14.01,2013-01-27 17:22:00,
2013-01-27 12:27:00,25.2,3.2,30.38,WSW,241,6.0,8.0,38,0.00,,,0.00,WUHU216VWC,2013-01-27 17:27:00,
2013-01-27 12:32:00,25.3,3.3,30.38,NNW,333,6.0,9.0,38,0.00,,CLR,0.00,VWS V14.01,2013-01-27 17:32:00,
2013-01-27 12:37:00,25.5,2.9,30.38,North,5,0.0,9.0,37,0.00,,CLR,0.00,VWS V14.01,2013-01-27 17:37:00,
2013-01-27 12:42:00,25.9,3.8,30.38,North,355,6.0,9.0,38,0.00,,,0.00,WUHU216VWC,2013-01-27 17:42:00,
2013-01-27 12:47:00,26.1,2.8,30.38,North,355,0.0,7.0,36,0.00,,CLR,0.00,VWS V14.01,2013-01-27 17:47:00,
2013-01-27 12:52:00,26.2,2.3,30.38,NW,317,2.0,7.0,35,0.00,,CLR,0.00,VWS V14.01,2013-01-27 17:52:00,
2013-01-27 12:57:00,26.2,3.5,30.38,North,355,5.0,7.0,37,0.00,,CLR,0.00,VWS V14.01,2013-01-27 17:57:00,
2013-01-27 13:02:00,26.1,2.8,30.38,NNE,16,4.0,7.0,36,0.00,,,0.00,WUHU216VWC,2013-01-27 18:02:00,
2013-01-27 13:07:00,26.2,2.9,30.37,NNE,22,2.0,6.0,36,0.00,,CLR,0.00,VWS V14.01,2013-01-27 18:07:00,
2013-01-27 13:12:00,26.5,3.2,30.38,North,360,2.0,6.0,36,0.00,,CLR,0.00,VWS V14.01,2013-01-27 18:12:00,
2013-01-27 13:17:00,26.8,3.4,30.38,North,360,0.0,5.0,36,0.00,,CLR,0.00,VWS V14.01,2013-01-27 18:17:00,
2013-01-27 13:22:00,27.1,3.1,30.38,West,261,2.0,3.0,35,0.00,,CLR,0.00,VWS V14.01,2013-01-27 18:22:00,
2013-01-27 13:27:00,27.2,2.6,30.37,NNW,336,0.0,5.0,34,0.00,,,0.00,WUHU216VWC,2013-01-27 18:27:00,
2013-01-27 13:31:00,27.4,2.7,30.38,NNW,342,2.0,5.0,34,0.00,,,0.00,WUHU216VWC,2013-01-27 18:31:00,
2013-01-27 13:36:00,27.6,2.9,30.38,NNW,340,1.0,5.0,34,0.00,,CLR,0.00,VWS V14.01,2013-01-27 18:36:00,
2013-01-27 13:41:00,27.7,2.4,30.38,NNW,346,4.0,5.0,33,0.00,,,0.00,WUHU216VWC,2013-01-27 18:41:00,
2013-01-27 13:46:00,27.6,2.3,30.37,NNW,338,4.0,7.0,33,0.00,,,0.00,WUHU216VWC,2013-01-27 18:46:00,
2013-01-27 13:51:00,27.5,2.8,30.37,WNW,293,1.0,7.0,34,0.00,,,0.00,WUHU216VWC,2013-01-27 18:51:00,
2013-01-27 13:56:00,27.7,3.6,30.37,North,351,1.0,5.0,35,0.00,,CLR,0.00,VWS V14.01,2013-01-27 18:56:00,
2013-01-27 14:01:00,27.7,3.0,30.38,North,350,3.0,7.0,34,0.00,,,0.00,WUHU216VWC,2013-01-27 19:01:00,
2013-01-27 14:06:00,27.8,1.8,30.38,SW,219,1.0,6.0,32,0.00,,CLR,0.00,VWS V14.01,2013-01-27 19:06:00,
2013-01-27 14:11:00,28.0,2.6,30.37,NNW,346,0.0,8.0,33,0.00,,,0.00,WUHU216VWC,2013-01-27 19:11:00,
2013-01-27 14:16:00,28.0,2.6,30.38,NW,323,1.0,8.0,33,0.00,,CLR,0.00,VWS V14.01,2013-01-27 19:16:00,
2013-01-27 14:21:00,28.1,2.7,30.37,North,355,2.0,3.0,33,0.00,,CLR,0.00,VWS V14.01,2013-01-27 19:21:00,
2013-01-27 14:26:00,28.5,3.1,30.37,West,271,1.0,6.0,33,0.00,,CLR,0.00,VWS V14.01,2013-01-27 19:26:00,
2013-01-27 14:31:00,28.7,3.2,30.37,North,355,7.0,7.0,33,0.00,,CLR,0.00,VWS V14.01,2013-01-27 19:31:00,
2013-01-27 14:36:00,28.5,2.4,30.37,NW,309,0.0,7.0,32,0.00,,,0.00,WUHU216VWC,2013-01-27 19:36:00,
2013-01-27 14:41:00,28.3,2.9,30.37,WSW,245,0.0,7.0,33,0.00,,,0.00,WUHU216VWC,2013-01-27 19:41:00,
2013-01-27 14:46:00,28.3,2.2,30.37,NW,306,2.0,7.0,32,0.00,,,0.00,WUHU216VWC,2013-01-27 19:46:00,
2013-01-27 14:51:00,28.1,3.4,30.37,NNW,328,1.0,6.0,34,0.00,,CLR,0.00,VWS V14.01,2013-01-27 19:51:00,
2013-01-27 14:56:00,28.0,2.6,30.38,NNW,340,1.0,6.0,33,0.00,,CLR,0.00,VWS V14.01,2013-01-27 19:56:00,
2013-01-27 15:01:00,28.0,2.6,30.37,WSW,238,1.0,6.0,33,0.00,,CLR,0.00,VWS V14.01,2013-01-27 20:01:00,
2013-01-27 15:06:00,28.0,2.0,30.37,WSW,251,2.0,6.0,32,0.00,,CLR,0.00,VWS V14.01,2013-01-27 20:06:00,
2013-01-27 15:11:00,28.1,3.4,30.37,WNW,303,0.0,8.0,34,0.00,,CLR,0.00,VWS V14.01,2013-01-27 20:11:00,
2013-01-27 15:16:00,28.2,3.4,30.38,WNW,296,0.0,8.0,34,0.00,,,0.00,WUHU216VWC,2013-01-27 20:16:00,
2013-01-27 15:21:00,28.3,3.5,30.37,WSW,249,2.0,6.0,34,0.00,,CLR,0.00,VWS V14.01,2013-01-27 20:21:00,
2013-01-27 15:26:00,28.3,2.9,30.38,West,271,0.0,6.0,33,0.00,,CLR,0.00,VWS V14.01,2013-01-27 20:26:00,
2013-01-27 15:31:00,28.2,2.8,30.38,WNW,298,2.0,5.0,33,0.00,,CLR,0.00,VWS V14.01,2013-01-27 20:31:00,
2013-01-27 15:36:00,28.1,3.4,30.38,West,260,2.0,5.0,34,0.00,,CLR,0.00,VWS V14.01,2013-01-27 20:36:00,
2013-01-27 15:41:00,28.0,2.6,30.38,NW,323,1.0,4.0,33,0.00,,CLR,0.00,VWS V14.01,2013-01-27 20:41:00,
2013-01-27 15:46:00,27.9,1.9,30.38,North,355,2.0,5.0,32,0.00,,,0.00,WUHU216VWC,2013-01-27 20:46:00,
2013-01-27 15:51:00,27.8,1.8,30.38,West,278,0.0,4.0,32,0.00,,,0.00,WUHU216VWC,2013-01-27 20:51:00,
2013-01-27 15:56:00,27.8,1.8,30.38,NW,321,1.0,9.0,32,0.00,,CLR,0.00,VWS V14.01,2013-01-27 20:56:00,
2013-01-27 16:01:00,27.6,1.6,30.38,SW,236,4.0,9.0,32,0.00,,,0.00,WUHU216VWC,2013-01-27 21:01:00,
2013-01-27 16:06:00,27.5,2.2,30.38,West,278,2.0,5.0,33,0.00,,CLR,0.00,VWS V14.01,2013-01-27 21:06:00,
2013-01-27 16:11:00,27.4,2.1,30.38,NW,309,1.0,4.0,33,0.00,,CLR,0.00,VWS V14.01,2013-01-27 21:11:00,
2013-01-27 16:16:00,27.2,2.6,30.38,West,262,4.0,4.0,34,0.00,,CLR,0.00,VWS V14.01,2013-01-27 21:16:00,
2013-01-27 16:21:00,27.0,3.6,30.39,West,273,0.0,4.0,36,0.00,,CLR,0.00,VWS V14.01,2013-01-27 21:21:00,
2013-01-27 16:26:00,26.8,3.4,30.39,West,273,0.0,2.0,36,0.00,,CLR,0.00,VWS V14.01,2013-01-27 21:26:00,
2013-01-27 16:31:00,26.6,3.8,30.39,WSW,252,2.0,4.0,37,0.00,,,0.00,WUHU216VWC,2013-01-27 21:31:00,
2013-01-27 16:36:00,26.5,4.3,30.39,WSW,252,0.0,2.0,38,0.00,,CLR,0.00,VWS V14.01,2013-01-27 21:36:00,
2013-01-27 16:41:00,26.2,3.5,30.39,West,271,3.0,5.0,37,0.00,,CLR,0.00,VWS V14.01,2013-01-27 21:41:00,
2013-01-27 16:46:00,26.1,2.8,30.39,West,267,1.0,5.0,36,0.00,,CLR,0.00,VWS V14.01,2013-01-27 21:46:00,
2013-01-27 16:51:00,25.9,3.2,30.39,West,265,1.0,5.0,37,0.00,,CLR,0.00,VWS V14.01,2013-01-27 21:51:00,
2013-01-27 16:56:00,25.6,3.0,30.40,West,269,0.0,5.0,37,0.00,,CLR,0.00,VWS V14.01,2013-01-27 21:56:00,
2013-01-27 17:01:00,25.4,3.3,30.40,West,269,0.0,5.0,38,0.00,,,0.00,WUHU216VWC,2013-01-27 22:01:00,
2013-01-27 17:06:00,25.2,4.8,30.41,West,272,3.0,5.0,41,0.00,,,0.00,WUHU216VWC,2013-01-27 22:06:00,
2013-01-27 17:11:00,24.9,4.0,30.41,West,272,0.0,4.0,40,0.00,,,0.00,WUHU216VWC,2013-01-27 22:11:00,
2013-01-27 17:16:00,24.6,3.7,30.41,West,259,0.0,3.0,40,0.00,,CLR,0.00,VWS V14.01,2013-01-27 22:16:00,
2013-01-27 17:21:00,24.3,2.9,30.41,SW,223,0.0,3.0,39,0.00,,CLR,0.00,VWS V14.01,2013-01-27 22:21:00,
2013-01-27 17:26:00,24.2,2.3,30.41,SW,223,0.0,2.0,38,0.00,,CLR,0.00,VWS V14.01,2013-01-27 22:26:00,
2013-01-27 17:31:00,24.0,3.7,30.41,WSW,254,1.0,3.0,41,0.00,,CLR,0.00,VWS V14.01,2013-01-27 22:31:00,
2013-01-27 17:36:00,23.7,4.5,30.42,West,261,0.0,4.0,43,0.00,,,0.00,WUHU216VWC,2013-01-27 22:36:00,
2013-01-27 17:41:00,23.4,2.7,30.42,West,261,0.0,4.0,40,0.00,,CLR,0.00,VWS V14.01,2013-01-27 22:41:00,
2013-01-27 17:46:00,23.0,2.3,30.42,West,261,0.0,0.0,40,0.00,,CLR,0.00,VWS V14.01,2013-01-27 22:46:00,
2013-01-27 17:51:00,22.8,2.1,30.43,West,261,0.0,0.0,40,0.00,,CLR,0.00,VWS V14.01,2013-01-27 22:51:00,
2013-01-27 17:56:00,22.6,3.0,30.43,West,261,0.0,2.0,42,0.00,,CLR,0.00,VWS V14.01,2013-01-27 22:56:00,
2013-01-27 18:01:00,22.5,3.4,30.43,West,261,0.0,2.0,43,0.00,,,0.00,WUHU216VWC,2013-01-27 23:01:00,
2013-01-27 18:06:00,22.1,2.5,30.43,West,261,0.0,2.0,42,0.00,,,0.00,WUHU216VWC,2013-01-27 23:06:00,
2013-01-27 18:11:00,22.1,3.0,30.43,NE,38,0.0,4.0,43,0.00,,,0.00,WUHU216VWC,2013-01-27 23:11:00,
2013-01-27 18:16:00,22.3,3.7,30.44,West,259,0.0,4.0,44,0.00,,CLR,0.00,VWS V14.01,2013-01-27 23:16:00,
2013-01-27 18:21:00,22.3,2.7,30.43,West,259,0.0,1.0,42,0.00,,CLR,0.00,VWS V14.01,2013-01-27 23:21:00,
2013-01-27 18:26:00,22.2,2.6,30.43,WSW,251,0.0,4.0,42,0.00,,,0.00,WUHU216VWC,2013-01-27 23:26:00,
2013-01-27 18:31:00,22.1,3.5,30.44,WSW,251,0.0,3.0,44,0.00,,CLR,0.00,VWS V14.01,2013-01-27 23:31:00,
2013-01-27 18:36:00,21.8,1.2,30.44,WSW,251,0.0,3.0,40,0.00,,,0.00,WUHU216VWC,2013-01-27 23:36:00,
2013-01-27 18:41:00,21.6,2.6,30.44,WSW,251,0.0,3.0,43,0.00,,,0.00,WUHU216VWC,2013-01-27 23:41:00,
2013-01-27 18:46:00,21.3,1.8,30.44,WSW,251,0.0,2.0,42,0.00,,,0.00,WUHU216VWC,2013-01-27 23:46:00,
2013-01-27 18:51:00,21.1,3.1,30.44,WSW,251,0.0,2.0,45,0.00,,,0.00,WUHU216VWC,2013-01-27 23:51:00,
2013-01-27 18:56:00,20.8,2.3,30.45,WSW,251,0.0,2.0,44,0.00,,,0.00,WUHU216VWC,2013-01-27 23:56:00,
2013-01-27 19:01:00,20.6,1.7,30.45,WSW,251,0.0,2.0,43,0.00,,,0.00,WUHU216VWC,2013-01-28 00:01:00,
2013-01-27 19:06:00,20.3,2.4,30.45,WSW,251,0.0,0.0,45,0.00,,,0.00,WUHU216VWC,2013-01-28 00:06:00,
2013-01-27 19:11:00,19.9,1.5,30.44,WSW,251,0.0,0.0,44,0.00,,CLR,0.00,VWS V14.01,2013-01-28 00:11:00,
2013-01-27 19:16:00,19.4,3.4,30.44,WSW,251,0.0,0.0,49,0.00,,,0.00,WUHU216VWC,2013-01-28 00:16:00,
2013-01-27 19:21:00,19.0,3.0,30.45,WSW,251,0.0,0.0,49,0.00,,CLR,0.00,VWS V14.01,2013-01-28 00:21:00,
2013-01-27 19:26:00,18.8,2.8,30.45,WSW,251,0.0,0.0,49,0.00,,CLR,0.00,VWS V14.01,2013-01-28 00:26:00,
2013-01-27 19:31:00,18.6,4.7,30.44,WSW,251,0.0,0.0,54,0.00,,,0.00,WUHU216VWC,2013-01-28 00:31:00,
2013-01-27 19:36:00,18.1,3.5,30.44,WSW,251,0.0,0.0,52,0.00,,CLR,0.00,VWS V14.01,2013-01-28 00:36:00,
2013-01-27 19:41:00,17.8,1.4,30.44,WSW,251,0.0,0.0,48,0.00,,,0.00,WUHU216VWC,2013-01-28 00:41:00,
2013-01-27 19:46:00,17.7,1.8,30.44,WSW,251,0.0,0.0,49,0.00,,CLR,0.00,VWS V14.01,2013-01-28 00:46:00,
2013-01-27 19:51:00,17.5,2.9,30.44,WSW,251,0.0,0.0,52,0.00,,CLR,0.00,VWS V14.01,2013-01-28 00:51:00,
2013-01-27 19:56:00,17.3,4.7,30.44,WSW,251,0.0,0.0,57,0.00,,CLR,0.00,VWS V14.01,2013-01-28 00:56:00,
2013-01-27 20:01:00,17.0,5.2,30.45,WSW,251,0.0,0.0,59,0.00,,,0.00,WUHU216VWC,2013-01-28 01:01:00,
2013-01-27 20:06:00,16.7,4.9,30.45,WSW,251,0.0,0.0,59,0.00,,,0.00,WUHU216VWC,2013-01-28 01:06:00,
2013-01-27 20:11:00,16.5,4.7,30.45,WSW,251,0.0,0.0,59,0.00,,,0.00,WUHU216VWC,2013-01-28 01:11:00,
2013-01-27 20:16:00,16.2,3.7,30.45,WSW,251,0.0,1.0,57,0.00,,CLR,0.00,VWS V14.01,2013-01-28 01:16:00,
2013-01-27 20:21:00,15.9,3.8,30.44,WSW,251,0.0,1.0,58,0.00,,CLR,0.00,VWS V14.01,2013-01-28 01:21:00,
2013-01-27 20:26:00,15.7,4.7,30.44,WSW,251,0.0,1.0,61,0.00,,,0.00,WUHU216VWC,2013-01-28 01:26:00,
2013-01-27 20:31:00,15.4,5.1,30.45,WSW,251,0.0,0.0,63,0.00,,CLR,0.00,VWS V14.01,2013-01-28 01:31:00,
2013-01-27 20:36:00,14.9,4.2,30.44,WSW,251,0.0,0.0,62,0.00,,CLR,0.00,VWS V14.01,2013-01-28 01:36:00,
2013-01-27 20:41:00,14.5,4.2,30.44,WSW,251,0.0,0.0,63,0.00,,CLR,0.00,VWS V14.01,2013-01-28 01:41:00,
2013-01-27 20:46:00,14.3,4.0,30.44,WSW,251,0.0,0.0,63,0.00,,CLR,0.00,VWS V14.01,2013-01-28 01:46:00,
2013-01-27 20:51:00,14.0,3.7,30.44,WSW,251,0.0,0.0,63,0.00,,CLR,0.00,VWS V14.01,2013-01-28 01:51:00,
2013-01-27 20:56:00,13.8,2.8,30.44,WSW,251,0.0,0.0,61,0.00,,CLR,0.00,VWS V14.01,2013-01-28 01:56:00,
2013-01-27 21:01:00,13.8,3.5,30.44,WSW,251,0.0,0.0,63,0.00,,,0.00,WUHU216VWC,2013-01-28 02:01:00,
2013-01-27 21:06:00,13.8,3.9,30.43,WSW,251,0.0,0.0,64,0.00,,,0.00,WUHU216VWC,2013-01-28 02:06:00,
2013-01-27 21:11:00,13.5,3.9,30.43,WSW,251,0.0,0.0,65,0.00,,CLR,0.00,VWS V14.01,2013-01-28 02:11:00,
2013-01-27 21:16:00,13.3,3.4,30.44,WSW,251,0.0,0.0,64,0.00,,,0.00,WUHU216VWC,2013-01-28 02:16:00,
2013-01-27 21:21:00,13.2,1.9,30.44,WSW,251,0.0,1.0,60,0.00,,CLR,0.00,VWS V14.01,2013-01-28 02:21:00,
2013-01-27 21:26:00,13.4,1.0,30.43,WSW,251,0.0,1.0,57,0.00,,,0.00,WUHU216VWC,2013-01-28 02:26:00,
2013-01-27 21:31:00,13.8,0.6,30.44,WSW,251,0.0,0.0,55,0.00,,CLR,0.00,VWS V14.01,2013-01-28 02:31:00,
2013-01-27 21:36:00,14.2,2.5,30.44,WSW,251,0.0,0.0,59,0.00,,CLR,0.00,VWS V14.01,2013-01-28 02:36:00,
2013-01-27 21:41:00,14.4,3.1,30.44,WSW,251,0.0,0.0,60,0.00,,,0.00,WUHU216VWC,2013-01-28 02:41:00,
2013-01-27 21:46:00,14.5,2.8,30.44,WSW,251,0.0,1.0,59,0.00,,,0.00,WUHU216VWC,2013-01-28 02:46:00,
2013-01-27 21:51:00,14.4,3.1,30.44,WSW,251,0.0,1.0,60,0.00,,CLR,0.00,VWS V14.01,2013-01-28 02:51:00,
2013-01-27 21:56:00,14.2,3.9,30.44,WSW,251,0.0,0.0,63,0.00,,CLR,0.00,VWS V14.01,2013-01-28 02:56:00,
2013-01-27 22:01:00,13.9,3.6,30.44,WSW,251,0.0,1.0,63,0.00,,,0.00,WUHU216VWC,2013-01-28 03:01:00,
2013-01-27 22:06:00,13.6,4.0,30.44,WSW,251,0.0,0.0,65,0.00,,,0.00,WUHU216VWC,2013-01-28 03:06:00,
2013-01-27 22:11:00,13.2,3.0,30.44,WSW,251,0.0,0.0,63,0.00,,,0.00,WUHU216VWC,2013-01-28 03:11:00,
2013-01-27 22:16:00,13.0,3.5,30.44,WSW,251,0.0,1.0,65,0.00,,,0.00,WUHU216VWC,2013-01-28 03:16:00,
2013-01-27 22:21:00,12.9,3.4,30.44,WSW,251,0.0,1.0,65,0.00,,,0.00,WUHU216VWC,2013-01-28 03:21:00,
2013-01-27 22:26:00,12.9,3.7,30.45,WSW,251,0.0,0.0,66,0.00,,CLR,0.00,VWS V14.01,2013-01-28 03:26:00,
2013-01-27 22:31:00,12.8,3.9,30.45,WSW,251,0.0,0.0,67,0.00,,CLR,0.00,VWS V14.01,2013-01-28 03:31:00,
2013-01-27 22:36:00,12.7,3.8,30.45,WSW,251,0.0,0.0,67,0.00,,CLR,0.00,VWS V14.01,2013-01-28 03:36:00,
2013-01-27 22:41:00,12.6,4.4,30.45,WSW,251,0.0,0.0,69,0.00,,,0.00,WUHU216VWC,2013-01-28 03:41:00,
2013-01-27 22:46:00,12.6,3.4,30.46,WSW,251,0.0,0.0,66,0.00,,CLR,0.00,VWS V14.01,2013-01-28 03:46:00,
2013-01-27 22:51:00,12.7,3.5,30.46,WSW,251,0.0,0.0,66,0.00,,CLR,0.00,VWS V14.01,2013-01-28 03:51:00,
2013-01-27 22:56:00,12.7,4.2,30.46,WSW,251,0.0,0.0,68,0.00,,CLR,0.00,VWS V14.01,2013-01-28 03:56:00,
2013-01-27 23:00:00,12.7,4.2,30.46,WSW,251,0.0,0.0,68,0.00,,CLR,0.00,VWS V14.01,2013-01-28 04:00:00,
2013-01-27 23:05:00,12.6,3.7,30.47,WSW,251,0.0,0.0,67,0.00,,CLR,0.00,VWS V14.01,2013-01-28 04:05:00,
2013-01-27 23:10:00,12.4,4.2,30.47,WSW,251,0.0,0.0,69,0.00,,,0.00,WUHU216VWC,2013-01-28 04:10:00,
2013-01-27 23:15:00,12.2,4.3,30.47,WSW,251,0.0,0.0,70,0.00,,,0.00,WUHU216VWC,2013-01-28 04:15:00,
2013-01-27 23:20:00,12.0,4.4,30.47,WSW,251,0.0,0.0,71,0.00,,CLR,0.00,VWS V14.01,2013-01-28 04:20:00,
2013-01-27 23:25:00,12.0,5.0,30.47,WSW,251,0.0,0.0,73,0.00,,,0.00,WUHU216VWC,2013-01-28 04:25:00,
2013-01-27 23:30:00,12.0,4.7,30.47,WSW,251,0.0,0.0,72,0.00,,,0.00,WUHU216VWC,2013-01-28 04:30:00,
2013-01-27 23:35:00,12.2,4.9,30.46,WSW,251,0.0,0.0,72,0.00,,,0.00,WUHU216VWC,2013-01-28 04:35:00,
2013-01-27 23:40:00,12.2,4.9,30.45,WSW,251,0.0,0.0,72,0.00,,,0.00,WUHU216VWC,2013-01-28 04:40:00,
2013-01-27 23:45:00,12.3,4.1,30.45,WSW,251,0.0,0.0,69,0.00,,CLR,0.00,VWS V14.01,2013-01-28 04:45:00,
2013-01-27 23:50:00,12.7,3.2,30.45,WSW,251,0.0,0.0,65,0.00,,CLR,0.00,VWS V14.01,2013-01-28 04:50:00,
2013-01-27 23:55:00,13.0,4.1,30.44,WSW,251,0.0,0.0,67,0.00,,CLR,0.00,VWS V14.01,2013-01-28 04:55:00,